WA2GUG Weather Reports


time (UTC)temp
C
wind
direction
speed
KPH
gust
KPH
rain 1hr
cm
rain 24hr
cm
rain mn
cm
humidity
%
barometer
mb
20260906012707 15 180 0.0 0.0 0.00 0.00 0.00 99 1009.0
20260906012207 15 226 0.0 0.0 0.00 0.00 0.00 99 1009.0
20260906011707 15 247 0.0 0.0 0.00 0.00 0.00 99 1009.0
20260906011207 15 120 0.0 0.0 0.00 0.00 0.00 99 1009.0
20260906010707 15 142 0.0 0.0 0.00 0.00 0.00 99 1009.0
20260906010207 15 180 0.0 0.0 0.00 0.00 0.00 99 1009.0
20260906005707 15 180 0.0 0.0 0.00 0.00 0.00 99 1009.0
20260906005207 15 108 0.0 0.0 0.00 0.00 0.00 99 1009.0
20260906004707 15 118 0.0 0.0 0.00 0.00 0.00 99 1009.0
20260906004207 15 117 0.0 0.0 0.00 0.00 0.00 99 1009.0
20260906003707 15 157 0.0 0.0 0.00 0.00 0.00 99 1009.0
20260906003207 15 157 0.0 0.0 0.00 0.00 0.00 99 1009.0
20260906002707 15 157 0.0 0.0 0.00 0.00 0.00 99 1009.0
20260906002207 15 157 0.0 0.0 0.00 0.00 0.00 99 1009.0
20260906001707 15 157 0.0 0.0 0.00 0.00 0.00 99 1009.0
20260906001207 15 157 0.0 0.0 0.00 0.00 0.00 99 1009.0
20260906000707 16 157 0.0 0.0 0.00 0.00 0.00 99 1009.0
20260906000207 16 157 0.0 0.0 0.00 0.00 0.00 99 1008.2
20260905235707 16 157 0.0 0.0 0.00 0.00 0.00 99 1008.2
20260905235207 16 157 0.0 0.0 0.00 0.00 0.00 99 1009.0
20260905234707 16 142 0.0 0.0 0.00 0.00 0.00 99 1009.0
20260905234207 16 135 0.0 0.0 0.00 0.00 0.00 99 1009.0
20260905233707 17 135 0.0 0.0 0.00 0.00 0.00 99 1009.0
20260905233207 17 100 0.0 0.0 0.00 0.00 0.00 99 1009.0
20260905232707 17 86 0.0 0.0 0.00 0.00 0.00 99 1009.0
20260905232207 17 135 0.0 0.0 0.00 0.00 0.00 99 1008.2
20260905231707 17 102 0.0 0.0 0.00 0.00 0.00 99 1008.2
20260905231207 17 63 0.0 0.0 0.00 0.00 0.00 99 1009.0
20260905230707 18 79 0.0 0.0 0.00 0.00 0.00 99 1009.0
20260905230207 18 106 0.0 0.0 0.00 0.00 0.00 99 1008.2
20260905225707 19 137 0.0 0.0 0.00 0.00 0.00 99 1008.2
20260905225207 20 142 0.0 0.0 0.00 0.00 0.00 99 1009.0
20260905224707 21 135 0.0 0.0 0.00 0.00 0.00 99 1008.2
20260905224207 22 112 0.0 0.0 0.00 0.00 0.00 99 1009.0
20260905223707 23 336 0.0 0.0 0.00 0.00 0.00 99 1008.2
20260905223207 25 175 0.0 0.0 0.00 0.00 0.00 99 1009.0
20260905222707 26 167 0.0 0.0 0.00 0.00 0.00 99 1009.0
20260905222207 27 126 0.0 0.0 0.00 0.00 0.00 99 1009.0
20260905221707 28 130 0.0 0.0 0.00 0.00 0.00 99 1009.0
20260905221207 27 125 0.0 0.0 0.00 0.00 0.00 99 1008.2
20260905220707 27 294 0.0 0.0 0.00 0.00 0.00 99 1008.1
20260905220207 -17 356 0.0 0.0 0.00 0.00 0.00 99 1008.0
20260905215707 26 42 0.0 0.0 0.00 0.00 0.00 99 1008.0
20260905215207 23 2 0.0 0.0 0.00 0.00 0.00 99 1008.0
20260905214707 22 77 0.0 0.0 0.00 0.00 0.00 99 1008.0
20260905214207 22 65 0.0 0.0 0.00 0.00 0.00 99 1008.0
20260905213707 22 149 0.0 0.0 0.00 0.00 0.00 99 1008.0
20260905213207 21 172 0.0 0.0 0.00 0.00 0.00 99 1008.0
20260905212707 21 122 0.0 0.0 0.00 0.00 0.00 99 1008.0
20260905212207 21 327 0.0 0.0 0.00 0.00 0.00 99 1008.0
20260905211707 21 337 0.0 0.0 0.00 0.00 0.00 99 1008.0
20260905211207 21 0 0.0 0.0 0.00 0.00 0.00 99 1008.0
20260905210707 21 347 0.0 0.0 0.00 0.00 0.00 99 1008.0
20260905210207 20 99 0.0 0.0 0.00 0.00 0.00 99 1008.0
20260905205707 20 33 0.0 0.0 0.00 0.00 0.00 99 1008.0
20260905205207 20 49 0.0 0.0 0.00 0.00 0.00 99 1008.0
20260905204707 20 101 0.0 0.0 0.00 0.00 0.00 99 1008.0
20260905204207 20 8 0.0 0.0 0.00 0.00 0.00 99 1008.0
20260905203707 20 4 0.0 0.0 0.00 0.00 0.00 99 1008.0
20260905203207 20 4 0.0 0.0 0.00 0.00 0.00 99 1008.0
20260905202707 20 311 0.0 0.0 0.00 0.00 0.00 99 1008.0
20260905202207 20 291 0.0 0.0 0.00 0.00 0.00 99 1008.0
20260905201707 20 302 0.0 0.0 0.00 0.00 0.00 99 1008.0
20260905201207 20 315 0.0 0.0 0.00 0.00 0.00 99 1008.0
20260905200707 20 299 0.0 0.0 0.00 0.00 0.00 99 1008.0
20260905200207 22 129 0.0 0.0 0.00 0.00 0.00 99 1008.0
20260905195707 23 132 0.0 0.0 0.00 0.00 0.00 99 1008.0
20260905195207 26 139 0.0 3.2 0.00 0.00 0.00 99 1008.0
20260905194707 28 138 0.0 4.8 0.00 0.00 0.00 99 1008.0
20260905194207 30 95 0.0 4.8 0.00 0.00 0.00 99 1008.0
20260905193707 31 134 0.0 0.0 0.00 0.00 0.00 99 1008.0
20260905193207 31 322 0.0 0.0 0.00 0.00 0.00 99 1008.0
20260905192207 29 95 0.0 0.0 0.00 0.00 0.00 99 1008.0
20260905191707 28 49 0.0 0.0 0.00 0.00 0.00 99 1008.0
20260905191207 28 2 0.0 0.0 0.00 0.00 0.00 99 1008.0
20260905190707 27 352 0.0 0.0 0.00 0.00 0.00 99 1008.0
20260905190206 27 177 0.0 0.0 0.00 0.00 0.00 99 1008.0
20260905185707 27 129 0.0 0.0 0.00 0.00 0.00 99 1008.0
20260905185207 28 139 0.0 0.0 0.00 0.00 0.00 99 1008.0
20260905184707 28 145 0.0 0.0 0.00 0.00 0.00 99 1008.0
20260905184206 28 162 0.0 0.0 0.00 0.00 0.00 99 1008.0
20260905183707 28 171 0.0 0.0 0.00 0.00 0.00 99 1008.0
20260905183207 27 90 0.0 0.0 0.00 0.00 0.00 99 1008.0
20260905182707 26 152 0.0 0.0 0.00 0.00 0.00 99 1008.0
20260905182206 26 135 0.0 0.0 0.00 0.00 0.00 99 1008.0
20260905181707 27 90 0.0 0.0 0.00 0.00 0.00 99 1008.0
20260905181206 27 101 0.0 0.0 0.00 0.00 0.00 99 1008.0
20260905180706 27 141 0.0 0.0 0.00 0.00 0.00 99 1008.0
20260905180206 27 95 0.0 0.0 0.00 0.00 0.00 99 1008.0
20260905175706 27 135 0.0 0.0 0.00 0.00 0.00 99 1008.0
20260905175206 27 97 0.0 0.0 0.00 0.00 0.00 99 1008.0
20260905174706 26 314 0.0 0.0 0.00 0.00 0.00 99 1008.0
20260905174206 25 86 0.0 0.0 0.00 0.00 0.00 99 1008.0
20260905173706 26 111 0.0 0.0 0.00 0.00 0.00 99 1008.0
20260905173206 26 322 0.0 0.0 0.00 0.00 0.00 99 1008.0
20260905172706 28 277 0.0 0.0 0.00 0.00 0.00 99 1008.0
20260905172206 28 74 0.0 0.0 0.00 0.00 0.00 99 1008.0
20260905171707 30 183 0.0 0.0 0.00 0.00 0.00 99 1008.0
20260905171206 29 268 0.0 0.0 0.00 0.00 0.00 99 1008.0
20260905170706 30 140 0.0 0.0 0.00 0.00 0.00 99 1008.0
20260905170206 32 147 0.0 0.0 0.00 0.00 0.00 99 1008.0
20260905165706 33 43 0.0 0.0 0.00 0.00 0.00 99 1008.0
20260905165206 32 185 0.0 0.0 0.00 0.00 0.00 99 1008.0
20260905164706 32 143 0.0 0.0 0.00 0.00 0.00 99 1008.0
20260905164206 33 95 0.0 0.0 0.00 0.00 0.00 99 1008.0
20260905163706 32 135 0.0 0.0 0.00 0.00 0.00 99 1008.0
20260905163206 31 132 0.0 0.0 0.00 0.00 0.00 99 1008.0
20260905162706 30 181 0.0 0.0 0.00 0.00 0.00 99 1008.0
20260905162206 30 173 0.0 0.0 0.00 0.00 0.00 99 1008.0
20260905161707 28 14 0.0 0.0 0.00 0.00 0.00 99 1008.0
20260905161206 27 142 0.0 0.0 0.00 0.00 0.00 99 1008.0
20260905160706 27 99 0.0 0.0 0.00 0.00 0.00 99 1008.0
20260905160206 27 130 0.0 0.0 0.00 0.00 0.00 99 1008.0
20260905155706 28 45 0.0 4.8 0.00 0.00 0.00 99 1008.0
20260905155206 28 0 1.6 4.8 0.00 0.00 0.00 99 1008.0
20260905154706 28 0 0.0 4.8 0.00 0.00 0.00 99 1008.0
20260905154206 28 357 0.0 0.0 0.00 0.00 0.00 99 1008.0
20260905153706 28 351 0.0 0.0 0.00 0.00 0.00 99 1008.0
20260905153206 28 44 0.0 0.0 0.00 0.00 0.00 99 1008.0
20260905152706 28 4 0.0 0.0 0.00 0.00 0.00 99 1008.0
20260905152206 29 4 0.0 0.0 0.00 0.00 0.00 99 1008.0
20260905151706 30 349 0.0 0.0 0.00 0.00 0.00 99 1008.0
20260905151206 30 5 0.0 0.0 0.00 0.00 0.00 99 1008.0
20260905150706 29 137 0.0 0.0 0.00 0.00 0.00 99 1008.0
20260905150206 30 138 0.0 0.0 0.00 0.00 0.00 99 1008.0
20260905145706 30 134 0.0 0.0 0.00 0.00 0.00 99 1008.0
20260905145206 28 95 0.0 3.2 0.00 0.00 0.00 99 1008.0
20260905144706 28 146 0.0 3.2 0.00 0.00 0.00 99 1008.0
20260905144206 28 166 0.0 0.0 0.00 0.00 0.00 99 1008.0
20260905143706 28 8 0.0 0.0 0.00 0.00 0.00 99 1008.0
20260905143206 28 139 0.0 0.0 0.00 0.00 0.00 99 1008.0
20260905142706 27 353 0.0 0.0 0.00 0.00 0.00 99 1008.0
20260905142206 26 190 0.0 0.0 0.00 0.00 0.00 99 1008.0
20260905141706 26 140 0.0 0.0 0.00 0.00 0.00 99 1008.0
20260905141206 28 49 0.0 0.0 0.00 0.00 0.00 99 1008.0
20260905140706 29 93 0.0 0.0 0.00 0.00 0.00 99 1008.0
20260905140206 28 45 0.0 0.0 0.00 0.00 0.00 99 1008.0
20260905135706 28 88 0.0 0.0 0.00 0.00 0.00 99 1008.0
20260905135206 27 45 0.0 0.0 0.00 0.00 0.00 99 1008.0
20260905134706 25 307 0.0 0.0 0.00 0.00 0.00 99 1008.0
20260905134206 25 179 0.0 0.0 0.00 0.00 0.00 99 1008.0
20260905133706 26 156 0.0 0.0 0.00 0.00 0.00 99 1008.0
20260905133206 26 184 0.0 0.0 0.00 0.00 0.00 99 1008.0
20260905132706 27 141 0.0 0.0 0.00 0.00 0.00 99 1008.0
20260905132206 26 81 0.0 0.0 0.00 0.00 0.00 99 1008.0
20260905131706 25 138 0.0 0.0 0.00 0.00 0.00 99 1008.0
20260905131206 24 282 0.0 0.0 0.00 0.00 0.00 99 1008.0
20260905130706 23 92 0.0 0.0 0.00 0.00 0.00 99 1008.0
20260905130206 22 206 0.0 0.0 0.00 0.00 0.00 99 1008.0
20260905125706 20 9 0.0 0.0 0.00 0.00 0.00 99 1008.0
20260905125206 18 163 0.0 0.0 0.00 0.00 0.00 99 1008.0
20260905124706 18 53 0.0 0.0 0.00 0.00 0.00 99 1008.0
20260905124206 17 12 0.0 0.0 0.00 0.00 0.00 99 1008.0
20260905123706 17 189 0.0 0.0 0.00 0.00 0.00 99 1008.0
20260905123206 17 314 0.0 0.0 0.00 0.00 0.00 99 1008.0
20260905122706 17 244 0.0 0.0 0.00 0.00 0.00 99 1008.0
20260905122206 17 133 0.0 0.0 0.00 0.00 0.00 99 1008.0
20260905121706 17 127 0.0 0.0 0.00 0.00 0.00 99 1008.0
20260905121206 16 184 0.0 0.0 0.00 0.00 0.00 99 1008.0
20260905120706 16 140 0.0 0.0 0.00 0.00 0.00 99 1008.0
20260905120206 16 271 0.0 0.0 0.00 0.00 0.00 99 1008.0
20260905115706 16 178 0.0 0.0 0.00 0.00 0.00 99 1008.0
20260905115206 16 206 0.0 0.0 0.00 0.00 0.00 99 1008.0
20260905114706 15 110 0.0 0.0 0.00 0.00 0.00 99 1008.0
20260905114206 15 137 0.0 0.0 0.00 0.00 0.00 99 1008.0
20260905113706 15 136 0.0 0.0 0.00 0.00 0.00 99 1008.0
20260905113206 15 149 0.0 0.0 0.00 0.00 0.00 99 1008.0
20260905112706 15 175 0.0 0.0 0.00 0.00 0.00 99 1008.0
20260905112206 15 151 0.0 0.0 0.00 0.00 0.00 99 1008.0
20260905111706 15 124 0.0 0.0 0.00 0.00 0.00 99 1008.0
20260905111206 15 112 0.0 0.0 0.00 0.00 0.00 99 1008.0
20260905110706 15 102 0.0 0.0 0.00 0.00 0.00 99 1008.0
20260905110206 15 91 0.0 0.0 0.00 0.00 0.00 99 1008.0
20260905105706 15 94 0.0 0.0 0.00 0.00 0.00 99 1008.0
20260905105206 15 30 0.0 0.0 0.00 0.00 0.00 99 1008.0
20260905104706 15 234 0.0 0.0 0.00 0.00 0.00 99 1007.2
20260905104206 15 111 0.0 0.0 0.00 0.00 0.00 99 1008.0
20260905103706 15 144 0.0 0.0 0.00 0.00 0.00 99 1007.2
20260905103206 15 135 0.0 0.0 0.00 0.00 0.00 99 1008.0
20260905102706 15 129 0.0 0.0 0.00 0.00 0.00 99 1007.2
20260905102206 15 166 0.0 0.0 0.00 0.00 0.00 99 1007.1
20260905101706 15 138 0.0 0.0 0.00 0.00 0.00 99 1007.0
20260905101206 15 141 0.0 0.0 0.00 0.00 0.00 99 1007.0
20260905100706 16 197 0.0 0.0 0.00 0.00 0.00 99 1007.0
20260905100206 16 152 0.0 0.0 0.00 0.00 0.00 99 1007.0
20260905095706 15 106 0.0 0.0 0.00 0.00 0.00 99 1007.0
20260905095206 15 125 0.0 0.0 0.00 0.00 0.00 99 1007.0
20260905094706 15 121 0.0 0.0 0.00 0.00 0.00 99 1007.0
20260905094206 15 99 0.0 0.0 0.00 0.00 0.00 99 1007.0
20260905093706 15 137 0.0 0.0 0.00 0.00 0.00 99 1007.0
20260905093206 15 135 0.0 0.0 0.00 0.00 0.00 99 1007.0
20260905092706 15 127 0.0 0.0 0.00 0.00 0.00 99 1007.0
20260905092206 15 200 0.0 0.0 0.00 0.00 0.00 99 1007.0
20260905091706 15 156 0.0 0.0 0.00 0.00 0.00 99 1007.0
20260905091206 15 142 0.0 0.0 0.00 0.00 0.00 99 1007.0
20260905090706 15 121 0.0 0.0 0.00 0.00 0.00 99 1007.0
20260905090206 15 123 0.0 0.0 0.00 0.00 0.00 99 1007.0
20260905085706 15 128 0.0 0.0 0.00 0.00 0.00 99 1007.0
20260905085206 15 114 0.0 0.0 0.00 0.00 0.00 99 1007.0
20260905084706 15 125 0.0 0.0 0.00 0.00 0.00 99 1007.0
20260905084206 15 157 0.0 0.0 0.00 0.00 0.00 99 1007.0
20260905083706 15 179 0.0 0.0 0.00 0.00 0.00 99 1007.0
20260905083206 15 174 0.0 0.0 0.00 0.00 0.00 99 1007.0
20260905082706 15 81 0.0 0.0 0.00 0.00 0.00 99 1007.0
20260905082206 15 130 0.0 0.0 0.00 0.00 0.00 99 1007.0
20260905081706 15 135 0.0 0.0 0.00 0.00 0.00 99 1007.0
20260905081206 15 127 0.0 0.0 0.00 0.00 0.00 99 1007.1
20260905080706 15 112 0.0 0.0 0.00 0.00 0.00 99 1007.2
20260905080206 15 89 0.0 0.0 0.00 0.00 0.00 99 1007.2
20260905075706 15 135 0.0 0.0 0.00 0.00 0.00 99 1007.2
20260905075206 15 120 0.0 0.0 0.00 0.00 0.00 99 1008.0
20260905074706 15 85 0.0 0.0 0.00 0.00 0.00 99 1007.2
20260905074206 15 127 0.0 0.0 0.00 0.00 0.00 99 1008.0
20260905073706 15 126 0.0 0.0 0.00 0.00 0.00 99 1007.2
20260905073206 15 141 0.0 0.0 0.00 0.00 0.00 99 1008.0
20260905072706 15 142 0.0 0.0 0.00 0.00 0.00 99 1007.2
20260905072206 15 182 0.0 0.0 0.00 0.00 0.00 99 1008.0
20260905071706 15 222 0.0 0.0 0.00 0.00 0.00 99 1008.0
20260905071206 15 163 0.0 0.0 0.00 0.00 0.00 99 1008.0
20260905070706 15 137 0.0 0.0 0.00 0.00 0.00 99 1008.0
20260905070206 15 139 0.0 0.0 0.00 0.00 0.00 99 1008.0
20260905065706 15 127 0.0 0.0 0.00 0.00 0.00 99 1007.2
20260905065206 15 142 0.0 0.0 0.00 0.00 0.00 99 1008.0
20260905064706 14 139 0.0 0.0 0.00 0.00 0.00 99 1008.0
20260905064206 14 141 0.0 0.0 0.00 0.00 0.00 99 1008.0
20260905063706 14 94 0.0 0.0 0.00 0.00 0.00 99 1008.0
20260905063206 14 118 0.0 0.0 0.00 0.00 0.00 99 1008.0
20260905062706 14 103 0.0 0.0 0.00 0.00 0.00 99 1008.0
20260905062206 14 81 0.0 0.0 0.00 0.00 0.00 99 1008.0
20260905061706 14 108 0.0 0.0 0.00 0.00 0.00 99 1008.0
20260905061206 14 97 0.0 0.0 0.00 0.00 0.00 99 1008.0
20260905060706 14 69 0.0 0.0 0.00 0.00 0.00 99 1008.0
20260905060206 14 190 0.0 0.0 0.00 0.00 0.00 99 1008.0
20260905055706 14 125 0.0 0.0 0.00 0.00 0.00 99 1008.0
20260905055206 14 189 0.0 0.0 0.00 0.00 0.00 99 1008.0
20260905054706 14 99 0.0 0.0 0.00 0.00 0.00 99 1008.0
20260905054206 13 136 0.0 0.0 0.00 0.00 0.00 99 1008.0
20260905053706 13 112 0.0 0.0 0.00 0.00 0.00 99 1008.0
20260905053206 13 141 0.0 0.0 0.00 0.00 0.00 99 1008.0
20260905052706 14 135 0.0 0.0 0.00 0.00 0.00 99 1008.0
20260905052205 14 118 0.0 0.0 0.00 0.00 0.00 99 1008.0
20260905051706 14 118 0.0 0.0 0.00 0.00 0.00 99 1008.0
20260905051206 14 1 0.0 0.0 0.00 0.00 0.00 99 1008.0
20260905050705 14 33 0.0 0.0 0.00 0.00 0.00 99 1008.0
20260905050205 15 18 0.0 0.0 0.00 0.00 0.00 99 1008.0
20260905045705 15 29 0.0 0.0 0.00 0.00 0.00 99 1008.0
20260905045205 15 111 0.0 0.0 0.00 0.00 0.00 99 1008.0
20260905044705 15 120 0.0 0.0 0.00 0.00 0.00 99 1008.0
20260905044205 15 135 0.0 0.0 0.00 0.00 0.00 99 1008.0
20260905043705 15 109 0.0 0.0 0.00 0.00 0.00 99 1008.0
20260905043205 15 136 0.0 0.0 0.00 0.00 0.00 99 1008.0
20260905042705 15 141 0.0 0.0 0.00 0.00 0.00 99 1008.0
20260905042205 15 131 0.0 0.0 0.00 0.00 0.00 99 1008.0
20260905041706 15 124 0.0 0.0 0.00 0.00 0.00 99 1008.0
20260905041205 15 114 0.0 0.0 0.00 0.00 0.00 99 1008.0
20260905040705 15 146 0.0 0.0 0.00 0.00 0.00 99 1008.0
20260905040205 15 165 0.0 0.0 0.00 0.00 0.00 99 1008.0
20260905035705 15 122 0.0 0.0 0.00 0.00 0.00 99 1008.0
20260905035205 15 134 0.0 0.0 0.00 0.00 0.00 99 1008.0
20260905034705 15 133 0.0 0.0 0.00 0.00 0.00 99 1008.0
20260905034205 15 86 0.0 0.0 0.00 0.00 0.00 99 1008.0
20260905033705 15 156 0.0 0.0 0.00 0.00 0.00 99 1008.0
20260905033205 15 165 0.0 0.0 0.00 0.00 0.00 99 1008.0
20260905032705 15 198 0.0 0.0 0.00 0.00 0.00 99 1008.0
20260905032205 16 138 0.0 0.0 0.00 0.00 0.00 99 1008.0
20260905031705 16 138 0.0 0.0 0.00 0.00 0.00 99 1008.0
20260905031205 16 127 0.0 0.0 0.00 0.00 0.00 99 1008.0
20260905030705 16 102 0.0 0.0 0.00 0.00 0.00 99 1008.0
20260905030205 15 116 0.0 0.0 0.00 0.00 0.00 99 1008.0
20260905025705 15 127 0.0 0.0 0.00 0.00 0.00 99 1008.0
20260905025205 15 135 0.0 0.0 0.00 0.00 0.00 99 1008.0
20260905024705 15 130 0.0 0.0 0.00 0.00 0.00 99 1008.0
20260905024205 16 103 0.0 0.0 0.00 0.00 0.00 99 1008.0
20260905023705 16 112 0.0 0.0 0.00 0.00 0.00 99 1008.0
20260905023205 16 123 0.0 0.0 0.00 0.00 0.00 99 1008.0
20260905022705 16 133 0.0 0.0 0.00 0.00 0.00 99 1008.0
20260905022205 16 109 0.0 0.0 0.00 0.00 0.00 99 1008.0
20260905021705 16 123 0.0 0.0 0.00 0.00 0.00 99 1008.0
20260905021205 16 125 0.0 0.0 0.00 0.00 0.00 99 1008.0
20260905020705 16 112 0.0 0.0 0.00 0.00 0.00 99 1008.0
20260905020205 16 105 0.0 0.0 0.00 0.00 0.00 99 1008.0
20260905015705 16 118 0.0 0.0 0.00 0.00 0.00 99 1008.0
20260905015205 16 116 0.0 0.0 0.00 0.00 0.00 99 1008.0
20260905014705 16 127 0.0 0.0 0.00 0.00 0.00 99 1008.0
20260905014205 16 112 0.0 0.0 0.00 0.00 0.00 99 1008.0
20260905013705 16 108 0.0 0.0 0.00 0.00 0.00 99 1008.0
20260905013205 16 104 0.0 0.0 0.00 0.00 0.00 99 1008.0